Location: Cheyres
(46.8153°N, 6.7877°E)
Time: 11:52:45
(UTC+00:00)

Gbstr 26 Del rocket - Pass Details

Date: 18 September 2021
Orbit: 492 x 1263 km, 51.8° (Epoch: 18 October)

Event Time Altitude Azimuth Distance (km) Brightness Sun altitude
Exits shadow 03:22:51 13° 294° (WNW) 2,980 6.1 -19.3°
Maximum altitude 03:30:07 73° 18° (NNE) 1,179 4.5 -18.1°
Drops below altitude 10° 03:36:54 10° 104° (ESE) 2,761 7.2 -17.1°
Sets 03:39:19 0° 106° (ESE) 3,599 7.8 -16.7°
